Date String (YYYY-MM-DD hh:mm:ss) UTC,Instrument flags,absolute air pressure of the measurement (hPa),sample flow rate (lpm),inlet stack bypass flow (lpm),air temperature of the measurement (°C),ambient temperature measured by the external sensor (°C),aerosol sample conditioner tube jacket temperature (°C),OPC LED temperature (°C),internal box temperature (°C),relative humidity of the measurement (%),span deviation,mass concentration of particles derived from Lorenz-Mie calculation of OPC scattering (μg/m³),mass concentration of particles derived from Lorenz-Mie calculation of OPC scattering (μg/m³),mass concentration of particles derived from Lorenz-Mie calculation of OPC scattering (μg/m³)
DateTimeUTC,F1_M11,P_M11,Q1_M11,Q2_M11,T1_M11,T2_M11,T3_M11,T4_M11,T5_M11,U1_M11,ZSPAN_M11,X2_M11,X0_M11,X1_M11
2023-08-28 23:00:00,SystemResetWarning,0836.7,5.00,000.00,029.2,024.7,000.0,037.4,029.6,34.5,0000.0,0003.53,0005.21,0003.33
2023-08-28 23:01:00,SystemResetWarning,0836.6,5.01,000.00,029.2,025.2,000.0,037.4,029.7,34.0,0000.0,0003.51,0005.64,0003.32
2023-08-28 23:02:00,SystemResetWarning,0836.6,4.99,000.00,029.2,025.6,000.0,037.4,029.9,34.1,0000.0,0003.52,0006.65,0003.31
2023-08-28 23:03:00,SystemResetWarning,0836.6,4.99,000.00,029.2,026.0,000.0,037.4,030.0,34.5,0000.0,0003.51,0007.51,0003.30
2023-08-28 23:04:00,SystemResetWarning,0836.7,5.01,000.00,029.3,026.3,000.0,037.4,030.1,34.0,0000.0,0003.51,0007.39,0003.29
2023-08-28 23:05:00,SystemResetWarning,0836.6,4.97,000.00,029.3,026.6,000.0,037.5,030.2,35.1,0000.0,0003.49,0007.39,0003.27
2023-08-28 23:06:00,SystemResetWarning,0836.7,5.04,000.00,029.5,026.8,000.0,037.5,030.3,34.3,0000.0,0003.48,0008.14,0003.26
2023-08-28 23:07:00,SystemResetWarning,0836.8,4.97,000.00,029.6,026.8,000.0,037.5,030.4,33.6,0000.0,0003.47,0008.11,0003.26
2023-08-28 23:08:00,SystemResetWarning,0836.8,5.01,000.00,029.7,025.6,000.0,037.4,030.1,33.6,0000.0,0003.47,0008.13,0003.25
2023-08-28 23:09:00,SystemResetWarning,0836.8,4.99,000.00,029.7,024.4,000.0,037.3,029.8,32.8,0000.0,0003.47,0008.19,0003.24
2023-08-28 23:10:00,SystemResetWarning,0836.8,5.00,000.00,029.6,024.2,000.0,037.3,029.6,32.6,0000.0,0003.44,0008.14,0003.22
2023-08-28 23:11:00,SystemResetWarning,0836.8,5.01,000.00,029.5,024.4,000.0,037.3,029.6,32.6,0000.0,0003.43,0008.10,0003.22
2023-08-28 23:12:00,SystemResetWarning,0836.8,5.01,000.00,029.4,024.9,000.0,037.4,029.7,32.7,0000.0,0003.44,0007.98,0003.23
2023-08-28 23:13:00,SystemResetWarning,0836.9,4.99,000.00,029.4,025.3,000.0,037.4,029.8,33.0,0000.0,0003.43,0007.46,0003.24
2023-08-28 23:14:00,SystemResetWarning,0836.9,5.00,000.00,029.4,025.7,000.0,037.5,029.9,33.1,0000.0,0003.44,0006.67,0003.25
2023-08-28 23:15:00,SystemResetWarning,0837.0,5.00,000.00,029.4,026.1,000.0,037.5,030.0,33.1,0000.0,0003.44,0006.43,0003.26
2023-08-28 23:16:00,SystemResetWarning,0837.0,5.00,000.00,029.4,026.4,000.0,037.5,030.1,33.5,0000.0,0003.46,0006.51,0003.26
2023-08-28 23:17:00,SystemResetWarning,0836.9,5.00,000.00,029.4,026.7,000.0,037.5,030.2,33.0,0000.0,0003.47,0005.28,0003.25
2023-08-28 23:18:00,SystemResetWarning,0837.0,5.00,000.00,029.4,026.9,000.0,037.5,030.2,32.9,0000.0,0003.47,0005.06,0003.25
2023-08-28 23:19:00,SystemResetWarning,0837.0,4.98,000.00,029.4,025.9,000.0,037.4,030.1,32.7,0000.0,0003.47,0005.02,0003.26
2023-08-28 23:20:00,SystemResetWarning,0837.0,5.00,000.00,029.4,024.5,000.0,037.3,029.7,31.9,0000.0,0003.50,0005.23,0003.27
2023-08-28 23:21:00,SystemResetWarning,0837.0,5.00,000.00,029.3,024.2,000.0,037.2,029.6,32.1,0000.0,0003.52,0005.30,0003.28
2023-08-28 23:22:00,SystemResetWarning,0837.0,5.01,000.00,029.1,024.4,000.0,037.2,029.5,31.5,0000.0,0003.54,0005.40,0003.29
2023-08-28 23:23:00,SystemResetWarning,0837.0,5.00,000.00,029.0,024.8,000.0,037.3,029.6,31.5,0000.0,0003.54,0005.51,0003.28
2023-08-28 23:24:00,SystemResetWarning,0836.9,4.99,000.00,029.0,025.3,000.0,037.3,029.7,31.9,0000.0,0003.55,0005.38,0003.28
2023-08-28 23:25:00,SystemResetWarning,0837.0,5.00,000.00,029.0,025.7,000.0,037.3,029.9,32.4,0000.0,0003.55,0005.38,0003.27
2023-08-28 23:26:00,SystemResetWarning,0837.0,5.01,000.00,029.0,026.1,000.0,037.3,029.9,32.4,0000.0,0003.56,0005.39,0003.27
2023-08-28 23:27:00,SystemResetWarning,0836.9,5.00,000.00,029.0,026.4,000.0,037.3,030.0,32.4,0000.0,0003.51,0005.13,0003.27
2023-08-28 23:28:00,SystemResetWarning,0837.0,5.00,000.00,029.0,026.7,000.0,037.3,030.1,32.8,0000.0,0003.49,0004.99,0003.27
2023-08-28 23:29:00,SystemResetWarning,0836.9,5.00,000.00,029.1,026.6,000.0,037.3,030.1,32.7,0000.0,0003.51,0005.07,0003.27
2023-08-28 23:30:00,SystemResetWarning,0836.9,4.98,000.00,029.0,025.3,000.0,037.1,029.8,32.8,0000.0,0003.54,0005.36,0003.28
2023-08-28 23:31:00,SystemResetWarning,0837.0,5.01,000.00,028.9,024.2,000.0,037.0,029.6,32.4,0000.0,0003.54,0006.03,0003.27
2023-08-28 23:32:00,SystemResetWarning,0836.9,5.02,000.00,028.8,024.1,000.0,037.0,029.4,33.1,0000.0,0003.53,0006.55,0003.28
2023-08-28 23:33:00,SystemResetWarning,0836.8,4.99,000.00,028.7,024.4,000.0,037.0,029.4,34.1,0000.0,0003.55,0006.61,0003.29
2023-08-28 23:34:00,SystemResetWarning,0836.9,5.00,000.00,028.6,024.8,000.0,037.0,029.5,33.1,0000.0,0003.55,0006.47,0003.30
2023-08-28 23:35:00,SystemResetWarning,0836.9,5.00,000.00,028.6,025.3,000.0,037.0,029.6,33.2,0000.0,0003.56,0006.53,0003.31
2023-08-28 23:36:00,SystemResetWarning,0837.0,5.00,000.00,028.6,025.7,000.0,037.0,029.7,32.9,0000.0,0003.58,0006.64,0003.33
2023-08-28 23:37:00,SystemResetWarning,0836.9,5.00,000.00,028.6,026.1,000.0,037.0,029.9,33.0,0000.0,0003.58,0006.70,0003.33
2023-08-28 23:38:00,SystemResetWarning,0836.9,5.00,000.00,028.7,026.4,000.0,037.0,029.9,33.0,0000.0,0003.59,0006.74,0003.34
2023-08-28 23:39:00,SystemResetWarning,0837.0,5.00,000.00,028.7,026.7,000.0,037.0,030.0,32.4,0000.0,0003.61,0006.80,0003.35
2023-08-28 23:40:00,SystemResetWarning,0837.1,5.00,000.00,028.7,026.8,000.0,037.0,030.1,32.7,0000.0,0003.64,0006.91,0003.37
2023-08-28 23:41:00,SystemResetWarning,0837.2,5.00,000.00,028.7,025.5,000.0,036.9,029.9,32.9,0000.0,0003.64,0006.76,0003.37
2023-08-28 23:42:00,SystemResetWarning,0837.2,5.00,000.00,028.7,024.3,000.0,036.8,029.6,33.1,0000.0,0003.62,0006.16,0003.38
2023-08-28 23:43:00,SystemResetWarning,0837.2,5.01,000.00,028.6,024.0,000.0,036.7,029.5,33.6,0000.0,0003.61,0005.29,0003.37
2023-08-28 23:44:00,SystemResetWarning,0837.2,5.01,000.00,028.4,024.3,000.0,036.7,029.3,33.9,0000.0,0003.60,0005.25,0003.36
2023-08-28 23:45:00,SystemResetWarning,0837.2,5.00,000.00,028.4,024.7,000.0,036.8,029.4,33.6,0000.0,0003.60,0005.25,0003.37
2023-08-28 23:46:00,SystemResetWarning,0837.2,5.00,000.00,028.4,025.2,000.0,036.8,029.5,32.6,0000.0,0003.60,0005.22,0003.37
2023-08-28 23:47:00,SystemResetWarning,0837.2,5.00,000.00,028.4,025.6,000.0,036.8,029.6,33.4,0000.0,0003.57,0005.46,0003.36
2023-08-28 23:48:00,SystemResetWarning,0837.2,4.99,000.00,028.4,026.0,000.0,036.8,029.7,33.5,0000.0,0003.56,0005.98,0003.36
2023-08-28 23:49:00,SystemResetWarning,0837.3,4.98,000.00,028.4,026.3,000.0,036.8,029.8,34.5,0000.0,0003.57,0007.22,0003.36
2023-08-28 23:50:00,SystemResetWarning,0837.2,5.02,000.00,028.5,026.6,000.0,036.8,030.0,37.8,0000.0,0003.56,0007.64,0003.36
2023-08-28 23:51:00,SystemResetWarning,0837.2,5.01,000.00,028.8,026.8,000.0,036.8,030.2,38.4,0000.0,0003.54,0007.79,0003.35
2023-08-28 23:52:00,SystemResetWarning,0837.2,4.98,000.00,029.2,025.9,000.0,036.8,030.1,37.6,0000.0,0003.52,0007.74,0003.35
2023-08-28 23:53:00,SystemResetWarning,0837.3,5.01,000.00,029.5,024.5,000.0,036.7,029.9,35.5,0000.0,0003.53,0007.76,0003.35
2023-08-28 23:54:00,SystemResetWarning,0837.4,5.02,000.00,029.9,024.0,000.0,036.7,029.9,34.4,0000.0,0003.54,0007.77,0003.36
2023-08-28 23:55:00,SystemResetWarning,0837.4,4.97,000.00,030.0,024.2,000.0,036.8,029.7,33.0,0000.0,0003.52,0007.75,0003.36
2023-08-28 23:56:00,SystemResetWarning,0837.5,5.01,000.00,030.1,024.6,000.0,036.9,029.8,32.4,0000.0,0003.50,0008.22,0003.34
2023-08-28 23:57:00,SystemResetWarning,0837.5,5.01,000.00,030.2,025.1,000.0,037.1,029.9,31.9,0000.0,0003.48,0008.18,0003.32
2023-08-28 23:58:00,SystemResetWarning,0837.6,5.00,000.00,030.2,025.6,000.0,037.2,030.0,31.5,0000.0,0003.49,0008.10,0003.30
2023-08-28 23:59:00,SystemResetWarning,0837.6,5.00,000.00,030.3,025.9,000.0,037.4,030.1,31.6,0000.0,0003.49,0007.67,0003.30
